Regional Weather Roundup
Issued by NWS State College, PA

Home | Current Version | Previous Version | Text Only | Print | Product List | Glossary On
Versions: 1 2 3 4 5 6 7 8 9 10 11 12 13 14 15 16 17 18 19 20 21 22 23 24 25 26 27 28 29 30 31 32 33 34 35 36 37 38 39 40 41 42 43 44 45 46 47 48 49 50
000
ASUS41 KCTP 171610
RWRCTP

REGIONAL WEATHER ROUNDUP
NATIONAL WEATHER SERVICE STATE COLLEGE PA
1200 PM EDT THU AUG 17 2017

Note: "fair" indicates few or no clouds below 12,000 feet with no
significant weather and/or obstructions to visibility.

* = STATION THAT DOES NOT REPORT PRECIPITATION /E.G. RAIN...SNOW...ETC/
    THUNDER OR FOG.

PAZ002>004-007>009-013>016-020>023-029>032-171700-
WESTERN PENNSYLVANIA

CITY           SKY/WX    TMP DP  RH WIND       PRES   REMARKS
ERIE           CLOUDY    87  67  51 SE13      29.92F
MEADVILLE      SUNNY     82  69  64 S10       29.98F
FRANKLIN*      SUNNY     81  66  61 S12       30.01F
NEW CASTLE     FAIR      80  71  74 S6        29.99F
BEAVER COUNTY  SUNNY     82  70  65 S8        30.00F
BUTLER*          N/A    N/A N/A N/A MISG        N/A
PITTSBURGH INT CLOUDY    83  69  62 S8        30.00F
PITTSBURGH     SUNNY     83  67  58 MISG      30.00F
INDIANA*       SUNNY     84  68  58 SW7       30.05S
LATROBE        SUNNY     84  66  54 SW9       30.02F
WASHINGTON CO* SUNNY     82  70  65 S10       30.01F
$$

PAZ004>006-010>012-017>019-024>028-033>037-041-042-045-046-049>053-171700-
CENTRAL PENNSYLVANIA

CITY           SKY/WX    TMP DP  RH WIND       PRES   REMARKS
BRADFORD       SUNNY     77  62  59 S7        30.05F
DUBOIS         SUNNY     81  64  56 S6        30.04F
CLEARFIELD     SUNNY     81  64  56 CALM      30.05F
JOHNSTOWN      SUNNY     80  63  55 SW7       30.07F
ALTOONA        SUNNY     79  68  69 CALM      30.06F
STATE COLLEGE  SUNNY     77  66  69 CALM      30.05F
WILLIAMSPORT   MOSUNNY   79  64  60 SE5       30.01F
SELINSGROVE    MOSUNNY   78  68  71 VRB5      30.04F
FT INDIANTOWN  MOSUNNY   78  67  68 CALM      30.04F
CAPITAL CITY   SUNNY     81  66  60 E8        30.03F
HARRISBURG     PTSUNNY   82  69  64 SE5       30.02F
YORK           MOSUNNY   82  73  74 CALM      30.03F
$$

PAZ038>040-043-044-047-048-054-055-060>062-067>071-171700-
EASTERN PENNSYLVANIA

CITY           SKY/WX    TMP DP  RH WIND       PRES   REMARKS
SCRANTON       SUNNY     79  62  56 VRB3      30.05F
MOUNT POCONO   SUNNY     72  60  66 S9        30.11F
ALLENTOWN      SUNNY     80  62  54 VRB3      30.05F
QUAKERTOWN*    SUNNY     81  63  54 SE3       30.07F
READING        SUNNY     81  67  62 CALM      30.03F
LANCASTER      SUNNY     82  70  66 SE8       30.03F
COATESVILLE    SUNNY     79  68  69 VRB5      30.07F
POTTSTOWN      MOSUNNY   79  65  62 E6        30.06F
BLUE BELL      SUNNY     79  64  61 S3        30.06S
DOYLESTOWN     SUNNY     79  63  57 VRB5      30.05F
WILLOW GROVE   NOT AVBL
NORTH PHILA    SUNNY     83  63  50 SE5       30.06F
PHILADELPHIA   MOSUNNY   84  64  50 NE7       30.04F
$$




USA.gov is the U.S. government's official web portal to all federal, state and local government web resources and services.